Satellite: MET-3/5
Catalog number: 21655
Epoch time:      09035.96296614
Element set:    0570
Inclination:      082.5533 deg
RA of node:       299.9204 deg
Eccentricity:    0.0013712
Arg of perigee:   146.4617 deg
Mean anomaly:     213.7375 deg
Mean motion:   13.17018261 rev/day
Decay rate:        5.1e-07 rev/day^2
Epoch rev:           84022
Checksum:              294

Satellite: MET-2/21
Catalog number: 22782
Epoch time:      09035.77206813
Element set:     370
Inclination:      082.5472 deg
RA of node:       287.0584 deg
Eccentricity:    0.0022607
Arg of perigee:   001.9864 deg
Mean anomaly:     358.1369 deg
Mean motion:   13.83633785 rev/day
Decay rate:       -8.2e-07 rev/day^2
Epoch rev:           77929
Checksum:              332

Satellite: OKEAN-4
Catalog number: 23317
Epoch time:      09035.69071389
Element set:    0821
Inclination:      082.5385 deg
RA of node:       098.1400 deg
Eccentricity:    0.0023991
Arg of perigee:   081.6825 deg
Mean anomaly:     278.7112 deg
Mean motion:   14.82672724 rev/day
Decay rate:       2.56e-06 rev/day^2
Epoch rev:           77273
Checksum:              318

Satellite: NOAA-14
Catalog number: 23455
Epoch time:      09035.82566943
Element set:    0502
Inclination:      098.9214 deg
RA of node:       113.9143 deg
Eccentricity:    0.0009307
Arg of perigee:   201.0515 deg
Mean anomaly:     159.0261 deg
Mean motion:   14.13758364 rev/day
Decay rate:       2.28e-06 rev/day^2
Epoch rev:           72722
Checksum:              287

Satellite: NOAA-15
Catalog number: 25338
Epoch time:      09035.67424500
Element set:    0805
Inclination:      098.5761 deg
RA of node:       027.8542 deg
Eccentricity:    0.0011666
Arg of perigee:   084.8532 deg
Mean anomaly:     275.3971 deg
Mean motion:   14.24743491 rev/day
Decay rate:      -1.13e-06 rev/day^2
Epoch rev:           55790
Checksum:              314

Satellite: RESURS
Catalog number: 25394
Epoch time:      09035.65749381
Element set:    0151
Inclination:      098.3584 deg
RA of node:       074.6441 deg
Eccentricity:    0.0000604
Arg of perigee:   229.2881 deg
Mean anomaly:     130.8244 deg
Mean motion:   14.24179816 rev/day
Decay rate:       -3.7e-07 rev/day^2
Epoch rev:           54953
Checksum:              307

Satellite: FENGYUN1
Catalog number: 25730
Epoch time:      09035.95909389
Element set:    0682
Inclination:      098.7441 deg
RA of node:       010.1469 deg
Eccentricity:    0.0021676
Arg of perigee:   231.4688 deg
Mean anomaly:     128.4539 deg
Mean motion:   14.07921090 rev/day
Decay rate:       1.52e-06 rev/day^2
Epoch rev:           50171
Checksum:              307

Satellite: OKEAN-0
Catalog number: 25860
Epoch time:      09035.55544770
Element set:     592
Inclination:      097.7732 deg
RA of node:       022.1056 deg
Eccentricity:    0.0000492
Arg of perigee:   076.9618 deg
Mean anomaly:     283.1640 deg
Mean motion:   14.73556929 rev/day
Decay rate:        2.2e-07 rev/day^2
Epoch rev:           51361
Checksum:              300

Satellite: NOAA-16
Catalog number: 26536
Epoch time:      09035.68965001
Element set:    0279
Inclination:      099.1753 deg
RA of node:       036.1683 deg
Eccentricity:    0.0009772
Arg of perigee:   294.8425 deg
Mean anomaly:     065.1730 deg
Mean motion:   14.12510524 rev/day
Decay rate:       2.63e-06 rev/day^2
Epoch rev:           43159
Checksum:              309

Satellite: NOAA-17
Catalog number: 27453
Epoch time:      09035.76745302
Element set:    0289
Inclination:      098.5041 deg
RA of node:       099.2943 deg
Eccentricity:    0.0012284
Arg of perigee:   146.5665 deg
Mean anomaly:     213.6293 deg
Mean motion:   14.24038727 rev/day
Decay rate:       1.36e-06 rev/day^2
Epoch rev:           34390
Checksum:              315

Satellite: NOAA-18
Catalog number: 28654
Epoch time:      09035.82112904
Element set:    0774
Inclination:      098.8946 deg
RA of node:       340.1789 deg
Eccentricity:    0.0014596
Arg of perigee:   020.3126 deg
Mean anomaly:     339.8621 deg
Mean motion:   14.11232421 rev/day
Decay rate:       3.86e-06 rev/day^2
Epoch rev:           19128
Checksum:              312

/EX
SB KEPS @ AMSAT  $ORB09036.M
Orbital Elements  09036.MISC

HR AMSAT ORBITAL ELEMENTS FOR MANNED AND MISCELLANEOUS SATELLITES
FROM WA5QGD FORT WORTH,TX February 5, 2009
Send Subscribe/unsubscribe to KEPS at 
http://www.amsat.org/mailman/listinfo/keps
BID: ORB09036.M
TO ALL RADIO AMATEURS BT

Satellite: HUBBLE
Catalog number: 20580
Epoch time:      09035.88828546
Element set:    0326
Inclination:      028.4693 deg
RA of node:       245.4123 deg
Eccentricity:    0.0003486
Arg of perigee:   334.9013 deg
Mean anomaly:     025.1409 deg
Mean motion:   15.00452231 rev/day
Decay rate:       2.95e-06 rev/day^2
Epoch rev:           82996
Checksum:              292

Satellite: PO-34
Catalog number: 25520
Epoch time:      09035.39188473
Element set:     178
Inclination:      028.4603 deg
RA of node:       064.0759 deg
Eccentricity:    0.0005268
Arg of perigee:   291.9781 deg
Mean anomaly:     068.0255 deg
Mean motion:   15.17291850 rev/day
Decay rate:       3.82e-06 rev/day^2
Epoch rev:           56846
Checksum:              326

